Weather History for Lufkin, TX

Change the Weather History Date:

Wednesday, January 23, 2013

  Actual Average Record
Temperature  
Mean Temperature 59 °F 49 °F  
Max Temperature 75 °F 60 °F 85 °F (1943)
Min Temperature 42 °F 39 °F 10 °F (1940)
Degree Days  
Heating Degree Days 6 16  
Month to date heating degree days 345 380  
Since 1 July heating degree days 962 1158  
Cooling Degree Days 0 0  
Month to date cooling degree days 0 0  
Year to date cooling degree days 0 0  
Growing Degree Days 8 (Base 50)    
Moisture  
Dew Point 47 °F    
Average Humidity 69    
Maximum Humidity 96    
Minimum Humidity 41    
Precipitation  
Precipitation 0.00 in 0.13 in 4.50 in (1920)
Month to date precipitation 3.56 3.04  
Year to date precipitation 3.56 3.04  
Snow  
Snow 0.00 in - - ()
Month to date snowfall 0.0  
Since 1 July snowfall 0.0  
Snow Depth 0.00 in    
Sea Level Pressure  
Sea Level Pressure 30.30 in    
Wind  
Wind Speed 5 mph (South)    
Max Wind Speed 14 mph    
Max Gust Speed 18 mph    
Visibility 4 miles    
Events Fog    
T = Trace of Precipitation, MM = Missing Value Source: NWS Daily Summary

Daily Weather History Graph

Daily Weather History Graph

Search for Another Location

Airport:

Trip Planner

Search our weather history database for the weather conditions in past years. The results will help you decide how hot, cold, wet, or windy it might be!

Date:

Astronomy

Jan. 23, 2013 Rise Set
Actual Time 7:15 AM CST 5:46 PM CST
Civil Twilight 6:50 AM CST 6:12 PM CST
Nautical Twilight 6:20 AM CST 6:41 PM CST
Astronomical Twilight 5:51 AM CST 7:10 PM CST
Moon 3:00 PM CST (1/23) 4:24 AM CST (1/23)
Length of Visible Light 11h 22m
Length of Day
10h 30m
Waxing Gibbous, 89% of the Moon is Illuminated
Jan 23
Waxing Gibbous
Jan 26
Full
Feb 3
Last Quarter
Feb 10
New
Feb 17
First Quarter

Hourly Weather History & Observations

Time (CST) Temp. Windchill Dew Point Humidity Pressure Visibility Wind Dir Wind Speed Gust Speed Precip Events Conditions
12:53 AM 48.9 °F - 45.0 °F 86% 30.29 in 10.0 mi SSE 3.5 mph - N/A   Clear
1:53 AM 48.0 °F - 44.1 °F 86% 30.29 in 8.0 mi SSE 3.5 mph - N/A   Partly Cloudy
2:43 AM 46.4 °F 45.2 °F 42.8 °F 87% 30.29 in 1.2 mi SE 3.5 mph - N/A   Clear
2:51 AM 44.6 °F 43.1 °F 42.8 °F 93% 30.29 in 0.5 mi SE 3.5 mph - N/A Fog Fog
2:53 AM 45.0 °F 43.5 °F 42.1 °F 90% 30.29 in 0.5 mi SE 3.5 mph - N/A Fog Fog
3:10 AM 44.6 °F 43.1 °F 41.0 °F 87% 30.29 in 2.5 mi SE 3.5 mph - N/A   Clear
3:17 AM 44.6 °F - 39.2 °F 81% 30.29 in 5.0 mi Calm Calm - N/A   Clear
3:53 AM 48.0 °F - 44.1 °F 86% 30.29 in 5.0 mi Calm Calm - N/A   Clear
4:24 AM 44.6 °F 43.1 °F 42.8 °F 93% 30.29 in 1.5 mi SE 3.5 mph - N/A   Clear
4:32 AM 44.6 °F - 41.0 °F 87% 30.29 in 0.5 mi Calm Calm - N/A Fog Fog
4:39 AM 44.6 °F - 41.0 °F 87% 30.29 in 2.0 mi Calm Calm - N/A   Clear
4:46 AM 44.6 °F - 41.0 °F 87% 30.29 in 4.0 mi Calm Calm - N/A   Clear
4:53 AM 46.0 °F - 42.1 °F 86% 30.29 in 4.0 mi Calm Calm - N/A   Clear
5:11 AM 46.4 °F - 42.8 °F 87% 30.30 in 1.8 mi Calm Calm - N/A   Clear
5:19 AM 44.6 °F - 42.8 °F 93% 30.30 in 0.2 mi Calm Calm - N/A Fog Fog
5:41 AM 46.4 °F - 42.8 °F 87% 30.30 in 0.5 mi Calm Calm - N/A Fog Fog
5:53 AM 46.0 °F - 43.0 °F 89% 30.30 in 0.5 mi Calm Calm - N/A Fog Fog
6:07 AM 44.6 °F - 42.8 °F 93% 30.31 in 1.2 mi Calm Calm - N/A   Clear
6:16 AM 44.6 °F - 42.8 °F 93% 30.31 in 0.5 mi Calm Calm - N/A Fog Fog
6:26 AM 42.8 °F - 41.0 °F 93% 30.31 in 2.0 mi Calm Calm - N/A   Partly Cloudy
6:32 AM 42.8 °F - 39.2 °F 87% 30.32 in 1.0 mi Calm Calm - N/A   Mist
6:39 AM 44.6 °F - 39.2 °F 81% 30.32 in 0.5 mi Calm Calm - N/A Fog Fog
6:48 AM 44.6 °F - 42.8 °F 93% 30.32 in 0.2 mi Calm Calm - N/A Fog Fog
6:53 AM 45.0 °F - 43.0 °F 93% 30.32 in 0.2 mi Calm Calm - N/A Fog Fog
7:03 AM 46.4 °F - 42.8 °F 87% 30.33 in 0.2 mi Calm Calm - N/A Fog Fog
7:53 AM 48.9 °F - 46.0 °F 90% 30.33 in 0.2 mi Calm Calm - N/A Fog Fog
8:53 AM 52.0 °F - 50.0 °F 93% 30.34 in 0.2 mi South 8.1 mph - N/A Fog Fog
9:04 AM 53.6 °F - 51.8 °F 94% 30.34 in 0.2 mi South 6.9 mph - N/A Fog Fog
9:53 AM 55.0 °F - 53.1 °F 93% 30.35 in 0.2 mi South 5.8 mph - N/A Fog Fog
10:08 AM 55.4 °F - 53.6 °F 94% 30.36 in 0.5 mi South 5.8 mph - N/A Fog Fog
10:24 AM 57.2 °F - 53.6 °F 88% 30.36 in 1.8 mi South 4.6 mph - N/A   Overcast
10:33 AM 57.2 °F - 55.4 °F 94% 30.36 in 2.5 mi South 4.6 mph - N/A   Overcast
10:40 AM 57.2 °F - 55.4 °F 94% 30.36 in 4.0 mi Variable 3.5 mph - N/A   Overcast
10:53 AM 59.0 °F - 55.0 °F 87% 30.36 in 6.0 mi South 4.6 mph - N/A   Mostly Cloudy
11:06 AM 62.6 °F - 55.4 °F 77% 30.36 in 9.0 mi Variable 3.5 mph - N/A   Scattered Clouds
11:53 AM 69.1 °F - 54.0 °F 58% 30.32 in 10.0 mi SSW 11.5 mph - N/A   Clear
12:53 PM 72.0 °F - 52.0 °F 49% 30.29 in 10.0 mi WSW 9.2 mph - N/A   Clear
1:53 PM 73.9 °F - 48.9 °F 41% 30.25 in 10.0 mi SW 10.4 mph - N/A   Clear
2:53 PM 73.9 °F - 50.0 °F 43% 30.24 in 10.0 mi South 10.4 mph - N/A   Clear
3:53 PM 73.9 °F - 48.9 °F 41% 30.24 in 10.0 mi SSW 6.9 mph - N/A   Clear
4:53 PM 72.0 °F - 48.9 °F 44% 30.23 in 10.0 mi SSW 6.9 mph - N/A   Clear
5:53 PM 66.9 °F - 50.0 °F 54% 30.22 in 10.0 mi SSW 4.6 mph - N/A   Clear
6:53 PM 60.1 °F - 48.9 °F 67% 30.22 in 10.0 mi SSE 4.6 mph - N/A   Clear
7:53 PM 63.0 °F - 52.0 °F 67% 30.22 in 10.0 mi South 5.8 mph - N/A   Clear
8:53 PM 62.1 °F - 53.1 °F 72% 30.22 in 10.0 mi South 5.8 mph - N/A   Clear
9:53 PM 60.1 °F - 54.0 °F 80% 30.23 in 10.0 mi South 4.6 mph - N/A   Clear
10:53 PM 57.9 °F - 53.1 °F 84% 30.24 in 10.0 mi South 4.6 mph - N/A   Clear
11:53 PM 59.0 °F - 54.0 °F 83% 30.23 in 10.0 mi South 5.8 mph - N/A   Clear